Wetterstats.de || Aktuelle Messwerte || Aktuelle Wetterkarten NEU! || Radar / Satellit NEU! || Wetterarchiv || Langzeitwerte NEU! || Klim. Kenntage || Met. Ereignisse || Agrarwerte || Echtzeitwerte

Monatsübersicht für Oktober 2020 Diagramm
 
Wetter Information zur Wetteranzeige
Zeitraffer
Tageslänge (hh:mm)
Höchsttemperatur in °C
Uhrzeit
Tiefsttemperatur in °C
Uhrzeit
Luftfeuchte (max., in %)
Uhrzeit
Luftfeuchte (min., in %)
Uhrzeit
Luftdruck (max., in hPa)
Uhrzeit
Luftdruck (min., in hPa)
Uhrzeit
Luftdruck (Ø, in hPa)
Regenrate (max, mm/h)
Uhrzeit
Niederschlag in mm
Verdunstung in mm
Solar in W/m² (Ø)
Solar in W/m² (max.)
UV-Index (max.)
Sonnenscheindauer (hh:mm)
Windrichtung (Ø)
Windstärke (Ø in km/h)
Windstärke (Ø in bft)
Windböe (max., in km/h)
Uhrzeit
Windböe (max., in bft)
Uhrzeit
Taupunkt (max., in °C)
Uhrzeit
Taupunkt (min., in °C)
Uhrzeit
Windchill (min., in °C)
Uhrzeit
Gewitterindex (max.)
Uhrzeit
Waldbrandindex (max.)
Uhrzeit
Graslandfeuerindex (max.)
Uhrzeit
Staubsturm-Index (max.)
Uhrzeit
01
Zeitraffer
11:39
15.7
14:50 Uhr
5.9
04:55 Uhr

98
10:30 Uhr
85
14:25 Uhr
1014.1
00:05 Uhr

1003.6
23:45 Uhr
1008.1
0,000
00:00 Uhr
0,000
0.635
107
474
14:20 Uhr
2.0
14:20 Uhr

00:18:00
1,6
0
11,3
15:30 Uhr

2
13.2
14:20 Uhr
5.3
05:05 Uhr
5.9
04:55 Uhr
5
19:50 Uhr
0.4
14:40 Uhr
1.5
14:40 Uhr
0.0
00:00 Uhr
02
Zeitraffer
11:34
15.8
15:45 Uhr
12.7
06:30 Uhr

96
05:55 Uhr
80
17:55 Uhr
1003.6
00:00 Uhr

1000.9
23:45 Uhr
1002.6
2,400
05:05 Uhr
1,000
0.635
70
296
13:25 Uhr
1.7
13:25 Uhr

00:35:00
4,7
1
30,6
15:55 Uhr

5
13.3
13:35 Uhr
11.3
23:35 Uhr
9.7
22:50 Uhr
5
00:00 Uhr
0.3
00:00 Uhr
1.4
15:45 Uhr
0.0
00:00 Uhr
03
Zeitraffer
11:30
21.7
15:45 Uhr
12.8
00:00 Uhr

96
23:55 Uhr
66
15:00 Uhr
1000.8
00:00 Uhr

992.3
18:20 Uhr
995.6
0,000
00:00 Uhr
0,000
2.337
288
638
13:45 Uhr
3.0
13:45 Uhr

07:54:00
7,0
1
35,4
16:15 Uhr

5
15.3
16:05 Uhr
11.3
00:05 Uhr
9.7
02:25 Uhr
8
19:10 Uhr
0.4
15:50 Uhr
1.8
15:50 Uhr
0.0
00:00 Uhr
04
Zeitraffer
11:27
19.3
14:00 Uhr
6.6
23:40 Uhr

95
00:00 Uhr
49
15:40 Uhr
1005.6
23:35 Uhr

993.2
00:00 Uhr
998.2
2,400
06:05 Uhr
0,200
2.108
246
637
12:45 Uhr
2.8
12:45 Uhr

05:25:00
4,1
1
29,0
14:25 Uhr

4
14.2
00:10 Uhr
5.5
23:40 Uhr
6.6
23:40 Uhr
8
00:05 Uhr
0.9
14:35 Uhr
2.3
15:00 Uhr
0.0
00:00 Uhr
05
Zeitraffer
11:22
17.5
13:50 Uhr
5.3
02:05 Uhr

96
03:15 Uhr
73
11:15 Uhr
1006.1
02:00 Uhr

1002.1
14:05 Uhr
1004.0
2,400
18:55 Uhr
0,200
1.219
182
541
10:55 Uhr
2.0
12:35 Uhr

04:31:00
3,4
1
17,7
12:45 Uhr

3
13.2
13:50 Uhr
4.4
02:05 Uhr
5.3
02:05 Uhr
4
12:45 Uhr
0.5
14:15 Uhr
1.9
13:30 Uhr
0.0
00:00 Uhr
06
Zeitraffer
11:18
15.9
17:05 Uhr
8.4
07:45 Uhr

93
00:00 Uhr
68
18:40 Uhr
1003.9
02:10 Uhr

1001.4
23:40 Uhr
1002.7
0,000
00:00 Uhr
0,000
1.346
168
598
10:45 Uhr
1.8
12:30 Uhr

03:44:00
6,5
1
30,6
11:50 Uhr

5
11.7
15:40 Uhr
7.1
06:25 Uhr
8.0
05:35 Uhr
3
21:40 Uhr
1.3
17:40 Uhr
2.5
16:50 Uhr
0.0
00:00 Uhr
07
Zeitraffer
11:14
15.8
13:55 Uhr
10.2
23:25 Uhr

94
18:20 Uhr
72
13:55 Uhr
1013.8
23:55 Uhr

1001.5
00:00 Uhr
1006.9
9,600
15:00 Uhr
2,200
1.143
158
719
13:30 Uhr
2.6
13:05 Uhr

02:35:00
4,9
1
22,5
13:55 Uhr

4
12.1
17:20 Uhr
9.3
23:25 Uhr
10.2
22:45 Uhr
3
19:05 Uhr
1.6
14:05 Uhr
3.4
14:35 Uhr
0.0
00:00 Uhr
08
Zeitraffer
11:10
14.6
14:35 Uhr
8.2
07:35 Uhr

95
07:25 Uhr
67
13:40 Uhr
1017.7
09:00 Uhr

1011.7
23:55 Uhr
1015.0
2,400
17:00 Uhr
2,400
1.219
158
626
12:10 Uhr
2.6
12:10 Uhr

02:29:00
7,7
2
37,0
18:00 Uhr

5
12.4
23:40 Uhr
7.4
07:20 Uhr
6.1
18:00 Uhr
5
22:15 Uhr
0.1
13:15 Uhr
2.4
13:40 Uhr
0.0
00:00 Uhr
09
Zeitraffer
11:06
15.7
14:05 Uhr
10.4
07:30 Uhr

96
23:10 Uhr
69
14:55 Uhr
1019.1
12:10 Uhr

1011.4
01:00 Uhr
1016.3
2,400
00:05 Uhr
1,800
0.914
137
501
13:50 Uhr
2.6
13:50 Uhr

01:13:00
5,1
1
27,4
04:50 Uhr

4
13.1
03:30 Uhr
9.5
07:30 Uhr
8.0
07:40 Uhr
5
00:00 Uhr
0.0
00:00 Uhr
1.3
15:00 Uhr
0.0
00:00 Uhr
10
Zeitraffer
11:02
12.5
14:55 Uhr
4.4
22:25 Uhr

96
00:00 Uhr
66
15:00 Uhr
1018.7
23:15 Uhr

1014.5
01:30 Uhr
1016.5
0,000
00:00 Uhr
0,000
1.067
151
510
12:35 Uhr
2.1
12:15 Uhr

03:00:00
4,3
1
30,6
15:00 Uhr

5
11.4
00:00 Uhr
3.5
22:30 Uhr
4.4
22:25 Uhr
3
00:00 Uhr
0.0
00:00 Uhr
1.0
15:05 Uhr
0.0
00:00 Uhr
11
Zeitraffer
10:57
11.4
15:20 Uhr
1.2
07:50 Uhr

96
05:55 Uhr
74
15:25 Uhr
1018.6
00:15 Uhr

1017.2
07:20 Uhr
1017.7
0,000
00:00 Uhr
0,000
0.838
150
504
14:55 Uhr
1.4
14:50 Uhr

03:42:00
2,3
1
17,7
11:00 Uhr

3
7.7
16:55 Uhr
0.7
05:00 Uhr
1.2
07:50 Uhr
0
00:00 Uhr
0.0
00:00 Uhr
1.5
15:05 Uhr
0.0
00:00 Uhr
12
Zeitraffer
10:54
11.2
14:30 Uhr
1.9
23:55 Uhr

96
00:05 Uhr
79
14:15 Uhr
1017.6
00:10 Uhr

1016.1
15:40 Uhr
1016.9
0,000
00:00 Uhr
0,000
0.533
101
388
13:35 Uhr
1.7
13:35 Uhr

00:41:00
1,8
0
19,3
15:00 Uhr

3
8.5
13:05 Uhr
1.2
23:55 Uhr
1.9
23:55 Uhr
0
00:00 Uhr
0.0
00:00 Uhr
1.6
14:20 Uhr
0.0
00:00 Uhr
13
Zeitraffer
10:50
12.3
13:55 Uhr
-0.8
04:55 Uhr

97
09:00 Uhr
76
13:45 Uhr
1016.8
00:05 Uhr

1013.3
23:25 Uhr
1015.4
2,400
14:25 Uhr
0,200
0.914
151
487
11:55 Uhr
1.6
11:40 Uhr

01:51:00
3,8
1
25,7
23:20 Uhr

4
9.0
12:35 Uhr
-1.5
05:00 Uhr
-0.8
04:55 Uhr
0
00:00 Uhr
0.6
13:55 Uhr
1.8
13:55 Uhr
0.0
00:00 Uhr
14
Zeitraffer
10:46
11.6
06:50 Uhr
9.8
13:05 Uhr

96
20:55 Uhr
77
04:20 Uhr
1013.2
00:00 Uhr

1007.3
12:45 Uhr
1009.1
4,800
09:15 Uhr
7,400
0.660
52
125
14:15 Uhr
0.6
12:20 Uhr

00:00:00
16,4
3
56,3
17:30 Uhr

7
9.7
22:40 Uhr
7.3
04:20 Uhr
0.5
17:35 Uhr
2
18:50 Uhr
0.3
04:20 Uhr
1.4
04:10 Uhr
0.0
00:00 Uhr
15
Zeitraffer
10:42
11.6
14:05 Uhr
10.1
07:30 Uhr

96
00:00 Uhr
87
14:10 Uhr
1019.7
23:15 Uhr

1010.5
00:00 Uhr
1015.2
2,400
01:50 Uhr
0,800
0.635
76
210
13:55 Uhr
1.2
13:55 Uhr

00:00:00
12,7
2
35,4
11:40 Uhr

5
9.9
00:50 Uhr
8.7
22:05 Uhr
3.0
13:45 Uhr
2
00:00 Uhr
0.0
00:00 Uhr
0.0
00:00 Uhr
0.0
00:00 Uhr


 
Wetter Information zur Wetteranzeige
Zeitraffer
Tageslänge (hh:mm)
Höchsttemperatur in °C
Uhrzeit
Tiefsttemperatur in °C
Uhrzeit
Luftfeuchte (max., in %)
Uhrzeit
Luftfeuchte (min., in %)
Uhrzeit
Luftdruck (max., in hPa)
Uhrzeit
Luftdruck (min., in hPa)
Uhrzeit
Luftdruck (Ø, in hPa)
Regenrate (max, mm/h)
Uhrzeit
Niederschlag in mm
Verdunstung in mm
Solar in W/m² (Ø)
Solar in W/m² (max.)
UV-Index (max.)
Sonnenscheindauer (hh:mm)
Windrichtung (Ø)
Windstärke (Ø in km/h)
Windstärke (Ø in bft)
Windböe (max., in km/h)
Uhrzeit
Windböe (max., in bft)
Uhrzeit
Taupunkt (max., in °C)
Uhrzeit
Taupunkt (min., in °C)
Uhrzeit
Windchill (min., in °C)
Uhrzeit
Gewitterindex (max.)
Uhrzeit
Waldbrandindex (max.)
Uhrzeit
Graslandfeuerindex (max.)
Uhrzeit
Staubsturm-Index (max.)
Uhrzeit
16
Zeitraffer
10:38
10.7
13:50 Uhr
6.9
23:55 Uhr

96
23:45 Uhr
86
13:45 Uhr
1020.4
12:05 Uhr

1019.0
16:30 Uhr
1019.6
2,400
14:30 Uhr
0,400
0.533
94
330
11:25 Uhr
1.4
11:25 Uhr

00:20:00
4,7
1
27,4
11:25 Uhr

4
8.7
00:00 Uhr
6.3
23:25 Uhr
3.9
12:40 Uhr
0
00:00 Uhr
0.0
00:00 Uhr
0.0
00:00 Uhr
0.0
00:00 Uhr
17
Zeitraffer
10:34
11.8
15:20 Uhr
6.1
23:50 Uhr

97
03:55 Uhr
69
15:00 Uhr
1019.5
00:10 Uhr

1016.9
23:50 Uhr
1018.3
0,000
00:00 Uhr
0,000
0.864
169
529
11:05 Uhr
1.8
11:30 Uhr

02:40:00
2,2
1
14,5
07:45 Uhr

3
7.6
06:35 Uhr
5.3
23:55 Uhr
6.1
23:50 Uhr
0
00:00 Uhr
0.0
00:00 Uhr
0.0
00:00 Uhr
0.0
00:00 Uhr
18
Zeitraffer
10:30
9.6
15:25 Uhr
5.8
01:35 Uhr

96
00:40 Uhr
86
15:45 Uhr
1019.1
23:25 Uhr

1014.5
07:35 Uhr
1016.2
4,800
16:25 Uhr
2,000
0.406
67
264
13:20 Uhr
1.2
13:30 Uhr

00:14:00
5,5
1
35,4
16:20 Uhr

5
8.1
15:35 Uhr
5.0
02:00 Uhr
1.0
16:20 Uhr
0
00:00 Uhr
0.0
00:00 Uhr
0.0
00:00 Uhr
0.0
00:00 Uhr
19
Zeitraffer
10:26
11.1
13:55 Uhr
1.9
07:30 Uhr

97
08:25 Uhr
74
14:25 Uhr
1022.5
12:35 Uhr

1019.1
00:00 Uhr
1021.4
2,400
01:00 Uhr
0,400
0.762
147
619
12:45 Uhr
1.7
12:45 Uhr

03:16:00
2,3
1
22,5
12:10 Uhr

4
7.8
11:35 Uhr
1.3
07:30 Uhr
1.9
07:30 Uhr
0
00:00 Uhr
0.0
00:00 Uhr
0.0
00:00 Uhr
0.0
00:00 Uhr
20
Zeitraffer
10:22
11.4
16:35 Uhr
0.6
04:05 Uhr

97
08:10 Uhr
76
14:55 Uhr
1022.3
00:30 Uhr

1011.7
23:50 Uhr
1016.6
2,400
20:55 Uhr
0,400
0.889
149
467
13:30 Uhr
1.5
13:30 Uhr

02:17:00
4,0
1
29,0
14:35 Uhr

4
9.3
23:55 Uhr
0.0
04:05 Uhr
0.6
04:05 Uhr
2
23:10 Uhr
0.0
00:00 Uhr
0.0
00:00 Uhr
0.0
00:00 Uhr
21
Zeitraffer
10:19
14.1
22:45 Uhr
9.9
08:10 Uhr

95
07:10 Uhr
73
22:55 Uhr
1012.0
00:10 Uhr

1006.3
18:30 Uhr
1009.4
2,400
04:50 Uhr
2,200
0.635
79
222
16:00 Uhr
0.8
12:25 Uhr

00:07:00
5,4
1
20,9
21:05 Uhr

4
10.2
12:05 Uhr
9.0
08:20 Uhr
8.3
00:20 Uhr
2
00:00 Uhr
0.0
00:00 Uhr
0.0
00:00 Uhr
0.0
00:00 Uhr
22
Zeitraffer
10:14
19.2
12:45 Uhr
12.6
19:50 Uhr

93
19:55 Uhr
69
12:10 Uhr
1013.2
12:15 Uhr

1007.1
00:55 Uhr
1010.8
0,000
00:00 Uhr
0,000
1.600
171
554
12:00 Uhr
1.9
12:00 Uhr

03:58:00
7,0
1
27,4
12:15 Uhr

4
13.6
12:45 Uhr
9.1
00:15 Uhr
11.0
01:20 Uhr
5
12:45 Uhr
0.0
00:00 Uhr
0.0
00:00 Uhr
0.0
00:00 Uhr
23
Zeitraffer
10:10
16.7
15:20 Uhr
9.2
08:55 Uhr

96
09:20 Uhr
76
12:20 Uhr
1012.7
09:15 Uhr

1008.9
21:20 Uhr
1011.3
7,200
17:45 Uhr
10,800
0.864
154
452
12:20 Uhr
1.6
12:05 Uhr

02:45:00
2,5
1
22,5
19:30 Uhr

4
13.7
15:30 Uhr
8.3
08:40 Uhr
9.2
08:55 Uhr
5
01:25 Uhr
0.0
00:00 Uhr
0.1
12:30 Uhr
0.0
00:00 Uhr
24
Zeitraffer
10:06
15.6
16:15 Uhr
10.7
01:40 Uhr

97
01:40 Uhr
78
15:00 Uhr
1013.4
12:05 Uhr

1011.0
00:25 Uhr
1012.3
2,400
03:30 Uhr
0,200
0.965
158
584
12:40 Uhr
1.7
12:20 Uhr

03:28:00
4,6
1
29,0
15:20 Uhr

4
12.1
17:05 Uhr
10.1
02:00 Uhr
9.5
07:55 Uhr
4
18:25 Uhr
0.0
00:00 Uhr
0.0
00:00 Uhr
0.0
00:00 Uhr
25
Zeitraffer
10:02
17.4
13:10 Uhr
9.9
03:30 Uhr

91
03:05 Uhr
65
12:50 Uhr
1012.3
00:00 Uhr

1004.3
23:30 Uhr
1008.0
0,000
00:00 Uhr
0,000
1.575
195
468
12:35 Uhr
1.5
11:30 Uhr

05:46:00
6,0
1
29,0
09:55 Uhr

4
11.0
11:45 Uhr
8.3
06:00 Uhr
6.7
05:00 Uhr
2
00:00 Uhr
0.0
00:00 Uhr
0.0
00:00 Uhr
0.0
00:00 Uhr
26
Zeitraffer
09:59
13.0
13:25 Uhr
8.0
06:00 Uhr

96
06:05 Uhr
84
00:00 Uhr
1005.6
23:40 Uhr

1002.1
13:35 Uhr
1003.7
2,400
09:30 Uhr
0,400
0.330
72
434
12:40 Uhr
1.0
12:40 Uhr

00:11:00
1,3
0
11,3
10:25 Uhr

2
10.6
12:50 Uhr
7.2
06:00 Uhr
8.0
06:00 Uhr
2
00:00 Uhr
0.0
00:00 Uhr
0.0
00:00 Uhr
0.0
00:00 Uhr
27
Zeitraffer
09:55
12.4
14:30 Uhr
7.3
04:25 Uhr

95
00:00 Uhr
72
13:55 Uhr
1009.5
19:20 Uhr

1005.6
00:00 Uhr
1008.1
2,400
00:55 Uhr
0,400
0.838
115
459
13:00 Uhr
1.3
13:00 Uhr

00:52:00
5,8
1
24,1
19:00 Uhr

4
9.2
00:00 Uhr
6.0
21:00 Uhr
4.9
21:45 Uhr
2
00:00 Uhr
0.0
00:00 Uhr
0.6
13:25 Uhr
0.0
00:00 Uhr
28
Zeitraffer
09:51
13.4
14:55 Uhr
8.7
03:40 Uhr

91
23:20 Uhr
75
12:20 Uhr
1010.6
20:05 Uhr

1007.3
03:45 Uhr
1009.2
0,000
00:00 Uhr
0,000
1.143
135
420
11:50 Uhr
1.5
11:40 Uhr

02:08:00
8,2
2
33,8
04:20 Uhr

5
9.5
15:20 Uhr
5.3
03:30 Uhr
2.2
04:20 Uhr
0
00:00 Uhr
0.0
00:00 Uhr
0.8
14:00 Uhr
0.0
00:00 Uhr
29
Zeitraffer
09:47
11.7
12:10 Uhr
8.1
23:20 Uhr

93
06:15 Uhr
74
12:10 Uhr
1016.7
22:10 Uhr

1007.3
05:45 Uhr
1011.6
4,800
06:00 Uhr
2,400
0.965
116
441
10:45 Uhr
1.3
11:50 Uhr

01:41:00
7,3
2
37,0
10:55 Uhr

5
8.9
06:40 Uhr
5.5
23:50 Uhr
4.2
08:05 Uhr
0
00:00 Uhr
0.0
00:00 Uhr
0.5
03:05 Uhr
0.0
00:00 Uhr
30
Zeitraffer
09:43
13.8
21:50 Uhr
6.0
02:45 Uhr

96
10:05 Uhr
85
00:05 Uhr
1018.8
23:50 Uhr

1013.4
12:55 Uhr
1015.4
2,400
04:00 Uhr
7,800
0.203
40
92
12:55 Uhr
0.5
12:20 Uhr

00:00:00
5,1
1
27,4
16:30 Uhr

4
13.2
21:50 Uhr
4.5
02:10 Uhr
6.0
02:45 Uhr
6
21:50 Uhr
0.0
00:05 Uhr
0.0
00:05 Uhr
0.0
00:05 Uhr
31
Zeitraffer
09:40
15.5
12:55 Uhr
13.4
04:50 Uhr

97
04:00 Uhr
90
13:00 Uhr
1022.4
10:40 Uhr

1017.2
23:45 Uhr
1020.2
0,000
00:00 Uhr
2,000
0.406
75
229
10:45 Uhr
0.9
10:55 Uhr

00:05:00
3,1
1
16,1
21:25 Uhr

3
14.1
12:50 Uhr
12.4
23:40 Uhr
11.7
21:15 Uhr
6
00:20 Uhr
0.0
00:00 Uhr
0.0
00:00 Uhr
0.0
00:00 Uhr
Stationsstandorte || Wetterblog || Wissenswertes || Downloads || Seitenhistorie || Partner || Impressum / Datenschutz